User: anonymous   Login
Location: Caltech
(34.1382°N, 118.1253°W)
Time: 03:28:44
(UTC-08:00)
Language:

Meteor 2-4 Rocket - Orbit

View from above orbital plane
View from above orbital plane
View from above satellite
View from above satellite

Ground track
Ground track

The orbit data is extracted from the following two-line orbital elements,

1 11289U 79021B   17329.19437884 -.00000030  00000-0 -23561-4 0  9992
2 11289  81.2474   7.0695 0076437 136.0846 224.6436 14.11567787993556
Epoch (UTC): 25 November 2017 04:39:54
Eccentricity: 0.0076437
inclination: 81.2474°
perigee height: 799 km
apogee height: 909 km
right ascension of ascending node: 7.0695°
argument of perigee: 136.0846°
revolutions per day: 14.11567787
mean anomaly at epoch: 224.6436°
orbit number at epoch: 99355

The dashed part of the orbit path shows where the satellite is in the earth's shadow,  

DLR